FW2297 Weather Reports


Display with metric or nautical units.
time (UTC)temp
F
wind
direction
speed
MPH
gust
MPH
rain 1hr
in
rain 24hr
in
rain mn
in
humidity
%
barometer
mb
20260504031558 37 0 0.0 0.0 0.00 0.01 0.01 70 1007.8
20260504031050 37 0 0.0 0.0 0.00 0.01 0.01 70 1007.7
20260504030551 37 0 0.0 0.0 0.00 0.01 0.01 68 1007.7
20260504030053 37 0 0.0 0.0 0.00 0.01 0.01 68 1007.7
20260504025551 37 0 0.0 0.0 0.00 0.05 0.01 68 1007.7
20260504025051 38 0 0.0 0.0 0.00 0.05 0.01 67 1007.7
20260504024550 38 0 0.0 0.0 0.00 0.05 0.01 66 1007.8
20260504024053 39 0 0.0 0.0 0.00 0.05 0.01 65 1007.8
20260504023551 39 0 0.0 0.0 0.00 0.05 0.01 64 1007.8
20260504023053 40 0 0.0 0.0 0.00 0.05 0.01 62 1007.9
20260504022551 40 0 0.0 0.0 0.00 0.05 0.01 61 1007.9
20260504022050 40 0 0.0 0.0 0.00 0.05 0.01 61 1008.0
20260504021554 40 0 0.0 0.0 0.00 0.05 0.01 60 1007.9
20260504021050 40 0 0.0 0.0 0.00 0.05 0.01 60 1007.8
20260504020550 40 0 0.0 0.0 0.00 0.05 0.01 60 1007.8
20260504020052 41 0 0.0 0.0 0.00 0.05 0.01 60 1007.9
20260504015551 41 0 0.0 0.0 0.00 0.10 0.01 60 1007.8
20260504015051 41 0 0.0 0.0 0.00 0.10 0.01 59 1007.9
20260504014558 41 0 0.0 0.0 0.00 0.10 0.01 59 1007.7
20260504014050 41 0 0.0 0.0 0.00 0.10 0.01 59 1007.8
20260504013551 41 0 0.0 0.0 0.00 0.10 0.01 60 1007.7
20260504013100 41 0 0.0 0.0 0.00 0.10 0.01 60 1007.8
20260504012552 41 0 0.0 0.0 0.00 0.10 0.01 60 1007.7
20260504012053 41 0 0.0 0.0 0.00 0.10 0.01 60 1007.7
20260504011551 41 0 0.0 0.0 0.00 0.10 0.01 59 1007.7
20260504011051 41 0 0.0 0.0 0.00 0.10 0.01 59 1007.7
20260504010551 42 0 0.0 0.0 0.00 0.10 0.01 59 1007.6
20260504010112 42 0 0.0 0.0 0.00 0.10 0.01 58 1007.6
20260504005551 42 0 0.0 0.0 0.00 0.10 0.01 58 1007.5
20260504005051 42 0 0.0 0.0 0.00 0.10 0.01 57 1007.4
20260504004553 42 0 0.0 0.0 0.00 0.10 0.01 57 1007.2
20260504004053 43 0 0.0 0.0 0.00 0.10 0.01 57 1007.2
20260504003550 43 0 0.0 0.0 0.00 0.10 0.01 56 1007.2
20260504003051 43 0 0.0 0.0 0.00 0.10 0.01 56 1007.2
20260504002550 43 0 0.0 0.0 0.00 0.10 0.01 56 1007.1
20260504002050 44 0 0.0 0.0 0.00 0.10 0.01 55 1007.0
20260504001600 44 0 0.0 0.0 0.00 0.10 0.01 55 1006.9
20260504001050 44 0 0.0 0.0 0.00 0.10 0.01 54 1006.9
20260504000550 45 0 0.0 0.0 0.00 0.10 0.01 53 1006.8
20260504000059 45 0 0.0 2.0 0.00 0.10 0.01 52 1006.8
20260503235554 45 0 0.0 4.0 0.00 0.11 0.01 51 1006.7
20260503235051 45 0 0.0 4.0 0.00 0.11 0.01 50 1006.7
20260503234554 46 0 0.0 5.0 0.00 0.11 0.01 50 1006.6
20260503234053 46 0 0.0 5.0 0.00 0.11 0.01 50 1006.5
20260503233551 46 0 0.0 8.0 0.00 0.11 0.01 49 1006.5
20260503233101 46 0 0.0 8.0 0.00 0.11 0.01 48 1006.5
20260503232550 46 0 0.0 7.0 0.00 0.11 0.01 48 1006.3
20260503232050 47 275 0.0 8.0 0.00 0.11 0.01 48 1006.3
20260503231559 47 0 0.0 8.0 0.00 0.11 0.01 47 1006.4
20260503231051 47 0 0.0 13.0 0.00 0.11 0.01 47 1006.4
20260503230552 47 0 1.0 13.0 0.00 0.11 0.01 46 1006.4
20260503230056 48 0 1.0 11.0 0.00 0.11 0.01 45 1006.4
20260503225554 48 331 1.0 13.0 0.00 0.11 0.01 45 1006.4
20260503225051 48 0 0.0 13.0 0.00 0.11 0.01 46 1006.4
20260503224557 48 315 4.0 13.0 0.00 0.11 0.01 44 1006.3
20260503224051 49 304 2.0 18.0 0.00 0.11 0.01 44 1006.1
20260503223551 49 339 1.0 18.0 0.00 0.11 0.01 44 1006.2
20260503223051 49 0 2.0 16.0 0.00 0.11 0.01 43 1006.0
20260503222550 50 5 4.0 16.0 0.00 0.11 0.01 42 1006.1
20260503222053 50 276 1.0 12.0 0.00 0.11 0.01 45 1006.2
20260503221601 50 0 0.0 9.0 0.00 0.11 0.01 45 1006.1
20260503221051 49 0 0.0 9.0 0.00 0.11 0.01 45 1006.0
20260503220552 49 242 1.0 8.0 0.00 0.11 0.01 46 1006.0
20260503220105 48 0 0.0 11.0 0.00 0.11 0.01 46 1006.0
20260503215548 48 0 0.0 11.0 0.00 0.11 0.01 46 1006.1
20260503215048 48 0 1.0 14.0 0.00 0.11 0.01 46 1006.0
20260503214554 48 0 2.0 14.0 0.00 0.11 0.01 46 1005.9
20260503214054 48 277 1.0 14.0 0.00 0.11 0.01 45 1006.0
20260503213554 48 0 1.0 12.0 0.00 0.11 0.01 46 1006.0
20260503213054 48 0 2.0 14.0 0.00 0.11 0.01 45 1006.1
20260503212551 48 1 1.0 14.0 0.00 0.11 0.01 45 1006.0
20260503212048 48 256 3.0 12.0 0.00 0.11 0.01 46 1006.0
20260503211557 48 347 1.0 10.0 0.00 0.11 0.01 46 1006.0
20260503211048 48 0 0.0 16.0 0.00 0.11 0.01 46 1006.0
20260503210552 49 278 1.0 16.0 0.00 0.11 0.01 45 1005.9
20260503210057 49 271 4.0 15.0 0.00 0.11 0.01 45 1005.8
20260503205552 48 299 0.0 17.0 0.00 0.19 0.01 47 1006.0
20260503205052 48 294 3.0 17.0 0.00 0.19 0.01 46 1005.9
20260503204603 47 258 2.0 15.0 0.00 0.19 0.01 47 1005.7
20260503204051 47 0 3.0 13.0 0.00 0.19 0.01 48 1005.8
20260503203548 47 0 3.0 14.0 0.00 0.19 0.01 46 1005.9
20260503203100 47 0 2.0 14.0 0.00 0.19 0.01 46 1005.8
20260503202552 47 0 2.0 16.0 0.00 0.19 0.01 48 1005.9
20260503202050 47 0 4.0 16.0 0.00 0.19 0.01 47 1005.8
20260503201551 47 301 1.0 15.0 0.00 0.19 0.01 47 1005.6
20260503201048 48 314 1.0 15.0 0.00 0.19 0.01 46 1005.7
20260503200548 48 275 4.0 13.0 0.00 0.19 0.01 45 1005.5
20260503200054 48 1 1.0 19.0 0.01 0.19 0.01 44 1005.5
20260503195549 48 0 2.0 19.0 0.01 0.19 0.01 44 1005.4
20260503195049 49 271 7.0 18.0 0.01 0.19 0.01 43 1005.5
20260503194608 49 0 9.0 18.0 0.01 0.19 0.01 42 1005.4
20260503194049 50 336 4.0 17.0 0.01 0.19 0.01 42 1005.4
20260503193551 50 0 2.0 14.0 0.01 0.19 0.01 44 1005.4
20260503193055 51 340 4.0 15.0 0.01 0.19 0.01 41 1005.5
20260503192550 51 285 3.0 15.0 0.01 0.19 0.01 42 1005.3
20260503192048 51 276 5.0 16.0 0.01 0.19 0.01 43 1005.5
20260503191632 50 297 3.0 20.0 0.01 0.19 0.01 43 1005.4
20260503191050 50 300 5.0 20.0 0.01 0.19 0.01 44 1005.5
20260503190551 50 255 6.0 20.0 0.01 0.19 0.01 43 1005.6
20260503190059 50 252 7.0 20.0 0.00 0.18 0.00 44 1005.6
20260503185551 50 0 8.0 16.0 0.00 0.19 0.00 44 1005.6
20260503185048 50 302 5.0 16.0 0.00 0.19 0.00 45 1005.5
20260503184559 49 266 5.0 20.0 0.00 0.19 0.00 48 1005.6
20260503184051 49 0 7.0 20.0 0.00 0.19 0.00 44 1005.5
20260503183547 50 315 8.0 20.0 0.00 0.19 0.00 43 1005.6
20260503183105 51 0 4.0 15.0 0.00 0.19 0.00 45 1005.5
20260503182550 51 338 3.0 20.0 0.00 0.19 0.00 44 1005.4
20260503182050 51 0 5.0 20.0 0.00 0.19 0.00 43 1005.5
20260503181600 51 278 2.0 17.0 0.00 0.19 0.00 44 1005.4
20260503181051 50 0 5.0 17.0 0.00 0.19 0.00 44 1005.6
20260503180551 49 0 6.0 19.0 0.00 0.19 0.00 45 1005.5
20260503180108 49 0 5.0 19.0 0.00 0.19 0.00 44 1005.5
20260503175549 50 293 7.0 19.0 0.00 0.19 0.00 45 1005.4
20260503175050 52 308 4.0 19.0 0.00 0.19 0.00 45 1005.6
20260503174555 52 293 4.0 19.0 0.00 0.19 0.00 47 1005.5
20260503174048 51 0 1.0 20.0 0.00 0.19 0.00 47 1005.7
20260503173548 49 0 2.0 20.0 0.00 0.19 0.00 51 1005.8
20260503173147 48 311 3.0 17.0 0.00 0.19 0.00 51 1005.8
20260503172549 48 353 6.0 17.0 0.00 0.19 0.00 51 1005.9
20260503172050 49 0 3.0 13.0 0.00 0.19 0.00 51 1005.8
20260503171556 49 277 1.0 13.0 0.00 0.19 0.00 49 1005.7
20260503171049 50 282 2.0 13.0 0.00 0.19 0.00 48 1005.7
20260503170549 50 279 2.0 16.0 0.00 0.19 0.00 51 1005.9
20260503150552 45 46 2.0 17.0 0.00 0.19 0.00 60 1006.4
20260503131052 42 0 3.0 14.0 0.00 0.19 0.00 81 1007.1
20260503130550 42 305 0.0 10.0 0.00 0.19 0.00 83 1007.0
20260503130104 41 0 0.0 10.0 0.00 0.19 0.00 84 1007.0
20260503120106 39 0 0.0 5.0 0.00 0.20 0.00 91 1007.1
20260503110554 38 0 0.0 6.0 0.00 0.22 0.00 93 1007.3
20260503100109 38 0 0.0 0.0 0.00 0.22 0.00 94 1007.2
20260503081558 38 0 0.0 0.0 0.00 0.26 0.00 94 1007.9
20260503081051 38 0 0.0 0.0 0.00 0.26 0.00 94 1008.0
20260503080555 38 0 0.0 0.0 0.00 0.26 0.00 94 1007.9
20260503072551 38 0 0.0 0.0 0.00 0.28 0.00 94 1008.3
20260503072052 38 0 0.0 1.0 0.00 0.28 0.00 94 1008.2
20260503071553 38 0 0.0 1.0 0.00 0.28 0.00 94 1008.3
20260503071050 38 0 0.0 0.0 0.00 0.28 0.00 94 1008.4
20260503070552 38 0 0.0 0.0 0.00 0.28 0.00 94 1008.4
20260503055051 39 0 0.0 0.0 0.00 0.31 0.00 94 1008.6
20260503054556 39 0 0.0 0.0 0.00 0.31 0.00 94 1008.7
20260503054051 39 0 0.0 0.0 0.00 0.31 0.00 94 1008.8
20260503053551 40 0 0.0 0.0 0.00 0.31 0.00 94 1008.8
20260503053055 40 0 0.0 0.0 0.00 0.31 0.00 94 1008.9
20260503052550 40 0 0.0 0.0 0.00 0.31 0.00 94 1008.8
20260503052053 40 0 0.0 0.0 0.00 0.31 0.00 94 1009.1
20260503051553 40 0 0.0 0.0 0.00 0.31 0.00 94 1008.9
20260503051055 40 0 0.0 0.0 0.00 0.31 0.00 94 1009.1
20260503050552 40 0 0.0 0.0 0.00 0.31 0.00 94 1009.2
20260503050055 40 0 0.0 0.0 0.00 0.31 0.00 94 1009.2
20260503045551 40 0 0.0 0.0 0.00 0.31 0.00 94 1009.2
20260503045052 40 0 0.0 0.0 0.00 0.31 0.00 94 1009.3
20260503044555 40 0 0.0 0.0 0.00 0.31 0.00 94 1009.5
20260503044052 40 0 0.0 0.0 0.00 0.31 0.00 94 1009.5
20260503043551 40 0 0.0 0.0 0.00 0.31 0.00 94 1009.5
20260503043100 40 0 0.0 0.0 0.00 0.31 0.00 94 1009.7
20260503042551 40 0 0.0 0.0 0.00 0.31 0.00 94 1009.7
20260503042052 40 0 0.0 0.0 0.00 0.31 0.00 94 1009.8
20260503041553 40 0 0.0 0.0 0.00 0.31 0.00 94 1009.9
20260503041051 40 0 0.0 0.0 0.00 0.31 0.00 94 1009.9
20260503040550 40 0 0.0 0.0 0.00 0.31 0.00 94 1010.0
20260503040054 40 0 0.0 0.0 0.00 0.31 0.00 94 1010.1
20260503035548 41 0 0.0 0.0 0.00 0.31 0.31 94 1010.1
20260503035051 41 0 0.0 0.0 0.00 0.31 0.31 94 1009.9
20260503034552 41 0 0.0 0.0 0.01 0.31 0.31 94 1010.2
20260503034052 41 0 0.0 0.0 0.01 0.31 0.31 94 1010.1
20260503033549 41 0 0.0 0.0 0.02 0.31 0.31 94 1010.1
20260503033052 41 0 0.0 0.0 0.02 0.31 0.31 94 1010.2
20260503032552 41 0 0.0 0.0 0.03 0.31 0.31 94 1010.2
20260503032051 41 0 0.0 0.0 0.03 0.31 0.31 94 1010.3
20260503031607 41 0 0.0 0.0 0.04 0.31 0.31 94 1010.3